Regional Weather Roundup
Issued by NWS

Home | Current Version | Previous Version | Text Only | Print | Product List | Glossary On
Versions: 1 2 3 4 5 6 7 8 9 10 11 12 13 14 15 16 17 18 19 20 21 22 23 24 25 26 27 28 29 30 31 32 33 34 35 36 37 38 39 40 41 42 43 44 45 46 47 48 49 50
000
ASUS43 KMPX 261501
RWRMN
WEATHER ROUNDUP FOR MINNESOTA
NATIONAL WEATHER SERVICE TWIN CITIES/CHANHASSEN MN
1000 AM CDT THU APR 26 2018


NOTE: "FAIR" INDICATES FEW OR NO CLOUDS BELOW 12,000 FEET WITH NO
SIGNIFICANT WEATHER AND/OR OBSTRUCTIONS TO VISIBILITY. N/A MEANS
CURRENT SKY AND/OR WEATHER CONDITIONS ARE NOT AVAILABLE.

MNZ060>063-068>070-261600-
   Twin Cities Metro

CITY           SKY/WX    TMP DP  RH WIND       PRES   REMARKS
TWIN CITIES    PTSUNNY   56  33  42 W14G23    29.85F
ST PAUL        FAIR      58  33  39 MISG      29.85F
CRYSTAL        FAIR      56  32  40 W12       29.83F
BLAINE         PTSUNNY   55  32  41 SW7       29.84F
LAKEVILLE      FAIR      55  34  44 SW8       29.85F
EDEN PRAIRIE   FAIR      55  34  45 W12       29.84F
SOUTH ST PAUL  FAIR      58  32  36 SW8       29.84F
LAKE ELMO      FAIR      55  34  44 SW12      29.86F
$$
MNZ001>005-007-008-013>017-022>024-027-028-261600-
   Northwest Minnesota

CITY           SKY/WX    TMP DP  RH WIND       PRES   REMARKS
BEMIDJI        FAIR      48  34  57 NW15G21   29.92S
HALLOCK        FAIR      46  30  53 N16G24    30.04S
ROSEAU         FAIR      45  34  65 N15       29.98F
WARROAD        FAIR      45  30  57 NW14G23   29.97F
CROOKSTON      FAIR      46  34  61 N22       30.03S
FOSSTON        FAIR      45  30  57 NW25G31   29.98R
DETROIT LAKES  FAIR      46  28  49 N16G31    29.97R
MOORHEAD       FAIR      48  30  49 N28       30.02R
PARK RAPIDS    FAIR      50  32  50 N15G24    29.91R
MAHNOMEN       FAIR      45  30  55 N25G33    29.97S
$$
MNZ006-009>011-018-025>026-261600-
   North Central Minnesota

CITY           SKY/WX    TMP DP  RH WIND       PRES   REMARKS
BAUDETTE       FAIR      44  35  70 NW15G25   29.95R
FLAG ISLAND    FAIR      39  30  70 NW14      29.95S
INTL FALLS     CLOUDY    44  35  70 N12       29.90R
WASKISH        CLOUDY    46  36  66 NW12G17   29.93R
BIG FORK       PTSUNNY   50  36  57 N8G18     29.88R
LONGVILLE      FAIR      48  36  61 NW9G21    29.89R
GRAND RAPIDS   FAIR      48  35  60 N18G25    29.88R
CRANE LAKE     CLOUDY    43  36  75 N8        29.88R
ORR            PTSUNNY   45  32  61 NW6       29.84R
COOK           PTSUNNY   45  36  70 N5G18     29.85R
WALKER         PTSUNNY   49  33  54 N15G21    29.91R
$$
MNZ012-019>021-037-261600-
   Northeast Minnesota

CITY           SKY/WX    TMP DP  RH WIND       PRES   REMARKS
DULUTH         CLOUDY    48  33  56 W15G24    29.80R
ELY            FAIR      45  30  57 NW17      29.80S
HIBBING        CLOUDY    45  34  65 N14G24    29.83R
EVELETH        FAIR      48  32  53 NW17G24   29.82R
DULUTH HARBOR  FAIR      48  36  61 W13       29.81R
TWO HARBORS    FAIR      55  37  50 NW8G16    29.75S
SILVER BAY     FAIR      54  34  47 NW5       29.74F
GRAND MARAIS     N/A     37  29  72 SW8       29.76F
G MARAIS ARPRT PTSUNNY   45  27  49 NW9       29.75S
$$
MNZ029>031-032-039>041-046>048-054>057-064-261600-
   West Central Minnesota

CITY           SKY/WX    TMP DP  RH WIND       PRES   REMARKS
FERGUS FALLS   FAIR      50  25  37 N23       29.95R
WHEATON        SUNNY     50  28  43 N26G35    30.02R
MORRIS         SUNNY     52  34  50 N24G33    29.95R
ALEXANDRIA     FAIR      53  32  44 N18G28    29.93R
ELBOW LAKE     FAIR      49  28  44 N21G32    29.97R
WADENA         FAIR      48  34  57 N18G25    29.92R
GLENWOOD       FAIR      52  34  50 N22       29.92R
APPLETON       SUNNY     54  37  54 N23G29    29.95R
BENSON         SUNNY     55  34  44 NE21G29   29.94R
ORTONVILLE     SUNNY     50  34  53 N30       29.98R
WILLMAR        FAIR      46  37  71 N14       29.91R
$$
MNZ033>034-036-042>043-049>051-058-059-261600-
   Central Minnesota

CITY           SKY/WX    TMP DP  RH WIND       PRES   REMARKS
ST CLOUD       FAIR      50  35  56 N12G21    29.86R
SAUK CENTRE    FAIR      50  36  57 N18G25    29.89R
PAYNESVILLE    FAIR      51  38  61 N14       29.89R
AITKIN         FAIR      48  36  61 NW14      29.84R
PINE RIVER     FAIR      48  34  57 N17G23    29.92R
BRAINERD       FAIR      51  34  52 N20       29.88R
STAPLES        FAIR      50  30  46 NW20      29.90R
LONG PRAIRIE   FAIR      50  34  53 NW15G21   29.90R
LITTLE FALLS   FAIR      52  28  40 N8G21     29.87S
LITCHFIELD     FAIR      52  37  58 NW13      29.87R
BUFFALO        FAIR      51  35  53 W9        29.86F
MAPLE LAKE     FAIR      52  37  56 NW9       29.87R
HUTCHINSON     FAIR      51  39  63 W14       29.87S
$$
MNZ037-044-045-052-053-261600-
   East Central Minnesota

CITY           SKY/WX    TMP DP  RH WIND       PRES   REMARKS
PRINCETON      FAIR      54  36  50 W12       29.85R
MORA           FAIR      48  32  53 W7        29.85S
CAMBRIDGE      FAIR      55  37  50 W8G17     29.84S
RUSH CITY      FAIR      53  34  48 W9        29.84R
MOOSE LAKE     CLOUDY    50  32  50 N9G16     29.81R
HINCKLEY       FAIR      50  34  53 W6        29.82F
CLOQUET        FAIR      48  30  49 NW12      29.80S
MCGREGOR       FAIR      48  36  61 NW17G25   29.84S
$$
MNZ071>073-080-081-089-090-097-098-261600-
   Southwest Minnesota

CITY           SKY/WX    TMP DP  RH WIND       PRES   REMARKS
MONTEVIDEO     SUNNY     52  39  62 NE25      29.92R
GRANITE FALLS  MOSUNNY   51  41  67 N21G26    29.93R
CANBY          MOSUNNY   52  36  55 N18G32    29.98R
MARSHALL       PTSUNNY   48  40  73 N24       29.92R
REDWOOD FALLS  PTSUNNY   50  37  61 NW15G23   29.89R
OLIVIA         CLOUDY    50  37  62 N20       29.88R
PIPESTONE      MOSUNNY  N/A N/A N/A N13G24    29.93R
WINDOM         MOSUNNY   52  30  43 W18       29.89R
JACKSON        PTSUNNY   52  36  54 W16       29.89S
TRACY          PTSUNNY   48  41  75 NW21G26   29.91R
SLAYTON        CLOUDY    46  38  72 NW18      29.91S
$$
MNZ065>067-074>077-082>085-091>093-261600-
   South Central Minnesota

CITY           SKY/WX    TMP DP  RH WIND       PRES   REMARKS
MANKATO        FAIR      56  35  45 W20G25    29.87
NEW ULM        MOSUNNY   54  37  54 W17       29.87S
ST JAMES       PTSUNNY   52  37  58 W14       29.89S
FAIRMONT       MOSUNNY   55  39  54 W17       29.89S
GLENCOE        FAIR      52  38  58 W12       29.85F
OWATONNA       FAIR      55  39  54 SW12G20   29.88S
WASECA         FAIR      52  36  54 SW12      29.90S
ALBERT LEA     FAIR      54  34  47 SW12      29.89F
$$
MNZ078>079-086>088-094>096-261600-
   Southeast Minnesota

CITY           SKY/WX    TMP DP  RH WIND       PRES   REMARKS
ROCHESTER      FAIR      53  39  59 SW13      29.90F
RED WING       FAIR      57  30  35 S7        29.86F
STANTON        FAIR      59  36  42 SW13      29.85F
DODGE CENTER   FAIR      52  37  58 SW12      29.89F
WINONA         FAIR      54  37  54 NE3       29.88F
AUSTIN         FAIR      54  37  54 SW8       29.90S
PRESTON        FAIR      55  35  46 SW14      29.91F
$$
ABBREVIATIONS USED IN REMARKS
   TC - TEMPERATURES IN CELSIUS
  WCI - WIND CHILL INDEX
   HX - HEAT INDEX
  VSB - VISIBILITY
$$




USA.gov is the U.S. government's official web portal to all federal, state and local government web resources and services.